Regional Weather Roundup
Issued by NWS

Home | Current Version | Previous Version | Graphics & Text | Print | Product List | Glossary On
Versions: 1 2 3 4 5 6 7 8 9 10 11 12 13 14 15 16 17 18 19 20 21 22 23 24 25 26 27 28 29 30 31 32 33 34 35 36 37 38 39 40 41 42 43 44 45 46 47 48 49 50
000
ASUS43 KBIS 302302
RWRND

NORTH DAKOTA REGIONAL WEATHER ROUNDUP
NATIONAL WEATHER SERVICE BISMARCK ND
600 PM CDT THU JUL 30 2015

NOTE: "FAIR" INDICATES FEW OR NO CLOUDS BELOW 12,000 FEET WITH NO
SIGNIFICANT WEATHER AND/OR OBSTRUCTIONS TO VISIBILITY.


NDZ001>003-009>011-017-310000-
NORTHWEST NORTH DAKOTA

CITY           SKY/WX    TMP DP  RH WIND       PRES   REMARKS
WILLISTON      MOSUNNY   85  43  22 N12       30.15S
MINOT          SUNNY     80  45  28 NW21G28   30.11S
MINOT AFB      SUNNY     82  46  28 NW18G25   30.09S
$$

NDZ018>021-031>035-040>046-310000-
SOUTHWEST NORTH DAKOTA

CITY           SKY/WX    TMP DP  RH WIND       PRES   REMARKS
BISMARCK       SUNNY     84  45  25 NW16G22   30.13S
DICKINSON      MOSUNNY   80  42  25 NW9       30.16S
GARRISON         N/A     80  50  34 NW17G23   30.13S
HETTINGER ARPT SUNNY     86  40  19 NW10G16   30.18S
$$

NDZ004>008-012>016-024-026-027-054-310000-
NORTHEAST NORTH DAKOTA

CITY           SKY/WX    TMP DP  RH WIND       PRES   REMARKS
GRAND FORKS    MOSUNNY   82  52  35 NW14      29.97S
GRND FRKS AFB  MOSUNNY   78  54  43 NW13      29.99S
DEVILS LAKE    SUNNY     79  52  38 NW23G30   30.02S
$$

NDZ022-023-025-028>030-036>039-047>053-310000-
SOUTHEAST NORTH DAKOTA

CITY           SKY/WX    TMP DP  RH WIND       PRES   REMARKS
FARGO          SUNNY     83  53  35 NW16      30.01F
JAMESTOWN      SUNNY     81  52  36 NW14      30.07S
$$



USA.gov is the U.S. government's official web portal to all federal, state and local government web resources and services.